Time,TemperatureF,DewpointF,PressureIn,WindDirection,WindDirectionDegrees,WindSpeedMPH,WindSpeedGustMPH,Humidity,HourlyPrecipIn,Conditions,Clouds,dailyrainin,SoftwareType,DateUTC
2013-05-04 00:21:00,66.0,3.0,29.87,North,-999,0.0,0.0,8,0.00,,,-99.99,,2013-05-04 07:21:00,
2013-05-04 00:32:00,66.0,3.0,29.87,North,-999,0.0,0.0,8,0.00,,,-99.99,,2013-05-04 07:32:00,
2013-05-04 00:41:00,66.0,3.0,29.87,North,-999,0.0,0.0,8,0.00,,,-99.99,,2013-05-04 07:41:00,
2013-05-04 01:21:00,66.0,6.0,29.87,North,-999,0.0,0.0,9,0.00,,,-99.99,,2013-05-04 08:21:00,
2013-05-04 01:31:00,66.0,6.0,29.87,North,-999,0.0,0.0,9,0.00,,,-99.99,,2013-05-04 08:31:00,
2013-05-04 01:41:00,66.0,6.0,29.87,North,-999,0.0,0.0,9,0.00,,,-99.99,,2013-05-04 08:41:00,
2013-05-04 02:21:00,65.0,7.0,29.84,North,0,0.0,4.0,10,0.00,,,-99.99,,2013-05-04 09:21:00,
2013-05-04 02:32:00,65.0,7.0,29.84,North,0,0.0,4.0,10,0.00,,,-99.99,,2013-05-04 09:32:00,
2013-05-04 02:42:00,65.0,7.0,29.84,North,0,0.0,4.0,10,0.00,,,-99.99,,2013-05-04 09:42:00,
2013-05-04 03:22:00,63.0,3.0,29.82,North,0,0.0,1.0,9,0.00,,,-99.99,,2013-05-04 10:22:00,
2013-05-04 03:33:00,63.0,3.0,29.82,North,0,0.0,1.0,9,0.00,,,-99.99,,2013-05-04 10:33:00,
2013-05-04 03:42:00,63.0,3.0,29.82,North,0,0.0,1.0,9,0.00,,,-99.99,,2013-05-04 10:42:00,
2013-05-04 04:21:00,62.0,5.0,29.81,North,0,0.0,1.0,10,0.00,,,-99.99,,2013-05-04 11:21:00,
2013-05-04 04:32:00,62.0,5.0,29.81,North,0,0.0,1.0,10,0.00,,,-99.99,,2013-05-04 11:32:00,
2013-05-04 04:42:00,62.0,5.0,29.81,North,0,0.0,1.0,10,0.00,,,-99.99,,2013-05-04 11:42:00,
2013-05-04 05:26:00,59.0,8.0,29.80,North,0,0.0,4.0,13,0.00,,,-99.99,,2013-05-04 12:26:00,
2013-05-04 05:35:00,59.0,8.0,29.80,North,0,0.0,4.0,13,0.00,,,-99.99,,2013-05-04 12:35:00,
2013-05-04 05:42:00,59.0,8.0,29.80,North,0,0.0,4.0,13,0.00,,,-99.99,,2013-05-04 12:42:00,
2013-05-04 06:21:00,58.0,9.0,29.80,North,0,0.0,1.0,14,0.00,,,-99.99,,2013-05-04 13:21:00,
2013-05-04 06:32:00,58.0,9.0,29.80,North,0,0.0,1.0,14,0.00,,,-99.99,,2013-05-04 13:32:00,
2013-05-04 06:41:00,58.0,9.0,29.80,North,0,0.0,1.0,14,0.00,,,-99.99,,2013-05-04 13:41:00,
2013-05-04 07:21:00,60.0,11.0,29.81,North,-999,0.0,0.0,14,0.00,,,-99.99,,2013-05-04 14:21:00,
2013-05-04 07:32:00,60.0,11.0,29.81,North,-999,0.0,0.0,14,0.00,,,-99.99,,2013-05-04 14:32:00,
2013-05-04 07:41:00,60.0,11.0,29.81,North,-999,0.0,0.0,14,0.00,,,-99.99,,2013-05-04 14:41:00,
2013-05-04 08:21:00,64.0,18.0,29.83,North,0,0.0,2.0,17,0.00,,,-99.99,,2013-05-04 15:21:00,
2013-05-04 08:33:00,64.0,18.0,29.83,North,0,0.0,2.0,17,0.00,,,-99.99,,2013-05-04 15:33:00,
2013-05-04 08:43:00,64.0,18.0,29.83,North,0,0.0,2.0,17,0.00,,,-99.99,,2013-05-04 15:43:00,
2013-05-04 09:22:00,65.0,22.0,29.83,North,-999,0.0,0.0,19,0.00,,,-99.99,,2013-05-04 16:22:00,
2013-05-04 09:33:00,65.0,22.0,29.83,North,-999,0.0,0.0,19,0.00,,,-99.99,,2013-05-04 16:33:00,
2013-05-04 09:42:00,65.0,22.0,29.83,North,-999,0.0,0.0,19,0.00,,,-99.99,,2013-05-04 16:42:00,
2013-05-04 10:22:00,70.0,23.0,29.83,North,0,0.0,1.0,17,0.00,,,-99.99,,2013-05-04 17:22:00,
2013-05-04 10:32:00,70.0,23.0,29.83,North,0,0.0,1.0,17,0.00,,,-99.99,,2013-05-04 17:32:00,
2013-05-04 10:42:00,70.0,23.0,29.83,North,0,0.0,1.0,17,0.00,,,-99.99,,2013-05-04 17:42:00,
2013-05-04 11:21:00,74.0,30.0,29.83,WSW,240,1.0,6.0,20,0.00,,,-99.99,,2013-05-04 18:21:00,
2013-05-04 11:32:00,74.0,30.0,29.83,WSW,240,1.0,6.0,20,0.00,,,-99.99,,2013-05-04 18:32:00,
2013-05-04 12:21:00,78.0,19.0,29.81,WSW,240,1.0,8.0,11,0.00,,,-99.99,,2013-05-04 19:21:00,
2013-05-04 12:32:00,78.0,19.0,29.81,WSW,240,1.0,8.0,11,0.00,,,-99.99,,2013-05-04 19:32:00,
2013-05-04 12:42:00,78.0,19.0,29.81,WSW,240,1.0,8.0,11,0.00,,,-99.99,,2013-05-04 19:42:00,
2013-05-04 13:21:00,81.0,19.0,29.78,WSW,240,1.0,13.0,10,0.00,,,-99.99,,2013-05-04 20:21:00,
2013-05-04 13:32:00,81.0,19.0,29.78,WSW,240,1.0,13.0,10,0.00,,,-99.99,,2013-05-04 20:32:00,
2013-05-04 13:42:00,81.0,19.0,29.78,WSW,240,1.0,13.0,10,0.00,,,-99.99,,2013-05-04 20:42:00,
2013-05-04 14:22:00,82.0,22.0,29.77,WSW,250,4.0,14.0,11,0.00,,,-99.99,,2013-05-04 21:22:00,
2013-05-04 14:33:00,82.0,22.0,29.77,WSW,250,4.0,14.0,11,0.00,,,-99.99,,2013-05-04 21:33:00,
2013-05-04 14:43:00,82.0,22.0,29.77,WSW,250,4.0,14.0,11,0.00,,,-99.99,,2013-05-04 21:43:00,
2013-05-04 16:21:00,76.0,41.0,29.76,South,190,8.0,21.0,29,0.00,,,-99.99,,2013-05-04 23:21:00,
2013-05-04 16:32:00,76.0,41.0,29.76,South,190,8.0,21.0,29,0.00,,,-99.99,,2013-05-04 23:32:00,
2013-05-04 16:42:00,76.0,41.0,29.76,South,190,8.0,21.0,29,0.00,,,-99.99,,2013-05-04 23:42:00,
2013-05-04 17:21:00,73.0,46.0,29.77,North,0,0.0,17.0,38,0.00,,,-99.99,,2013-05-05 00:21:00,
2013-05-04 17:31:00,73.0,46.0,29.77,North,0,0.0,17.0,38,0.00,,,-99.99,,2013-05-05 00:31:00,
2013-05-04 17:42:00,73.0,46.0,29.77,North,0,0.0,17.0,38,0.00,,,-99.99,,2013-05-05 00:42:00,
2013-05-04 18:21:00,69.0,47.0,29.78,North,0,0.0,10.0,45,0.00,,,-99.99,,2013-05-05 01:21:00,
2013-05-04 18:32:00,69.0,47.0,29.78,North,0,0.0,10.0,45,0.00,,,-99.99,,2013-05-05 01:32:00,
2013-05-04 18:42:00,69.0,47.0,29.78,North,0,0.0,10.0,45,0.00,,,-99.99,,2013-05-05 01:42:00,
2013-05-04 19:21:00,67.0,48.0,29.79,North,0,0.0,10.0,51,0.00,,,-99.99,,2013-05-05 02:21:00,
2013-05-04 19:31:00,67.0,48.0,29.79,North,0,0.0,10.0,51,0.00,,,-99.99,,2013-05-05 02:31:00,
2013-05-04 19:42:00,67.0,48.0,29.79,North,0,0.0,10.0,51,0.00,,,-99.99,,2013-05-05 02:42:00,
2013-05-04 20:21:00,62.0,47.0,29.81,North,0,0.0,7.0,58,0.00,,,-99.99,,2013-05-05 03:21:00,
2013-05-04 20:32:00,62.0,47.0,29.81,North,0,0.0,7.0,58,0.00,,,-99.99,,2013-05-05 03:32:00,
2013-05-04 20:42:00,62.0,47.0,29.81,North,0,0.0,7.0,58,0.00,,,-99.99,,2013-05-05 03:42:00,
2013-05-04 21:22:00,58.0,48.0,29.83,North,0,0.0,4.0,70,0.00,,,-99.99,,2013-05-05 04:22:00,
2013-05-04 21:32:00,58.0,48.0,29.83,North,0,0.0,4.0,70,0.00,,,-99.99,,2013-05-05 04:32:00,
2013-05-04 21:43:00,58.0,48.0,29.83,North,0,0.0,4.0,70,0.00,,,-99.99,,2013-05-05 04:43:00,
2013-05-04 22:21:00,55.0,47.0,29.85,North,-999,0.0,0.0,75,0.00,,,-99.99,,2013-05-05 05:21:00,
2013-05-04 22:31:00,55.0,47.0,29.85,North,-999,0.0,0.0,75,0.00,,,-99.99,,2013-05-05 05:31:00,
2013-05-04 22:42:00,55.0,47.0,29.85,North,-999,0.0,0.0,75,0.00,,,-99.99,,2013-05-05 05:42:00,
2013-05-04 23:21:00,54.0,47.0,29.86,North,-999,0.0,0.0,78,0.00,,,-99.99,,2013-05-05 06:21:00,
2013-05-04 23:32:00,54.0,47.0,29.86,North,-999,0.0,0.0,78,0.00,,,-99.99,,2013-05-05 06:32:00,
2013-05-04 23:42:00,54.0,47.0,29.86,North,-999,0.0,0.0,78,0.00,,,-99.99,,2013-05-05 06:42:00,